Wetbulb
41.22 39.28 38.25 37.29 36.35 36.15 35.96 35.63 35.82 36.12 35.99 36.23 36.25 35.61 35.26 34.53 34.48 34.06 33.03 33.22 34.07 34.51
42.05 39.68 38.01 37.04 36.38 36.25 36.04 37.15 36.14 35.61 35.18 35.72 35.30 35.13 34.22 33.55 33.72 33.13 31.94 31.50 32.10 32.88
42.30 41.58 39.73 37.86 36.84 36.43 37.30 37.60 36.07 34.76 34.58 34.48 34.47 34.42 33.76 32.83 32.97 32.76 31.88 32.01 31.11 31.62
41.24 41.92 41.51 39.89 38.20 35.58 35.81 35.76 35.45 34.38 33.39 33.41 33.03 33.14 32.22 32.70 33.20 32.47 32.19 31.51 30.94 30.65
34.75 35.31 35.36 35.52 35.85 35.42 33.62 34.46 34.32 33.79 33.23 32.49 32.58 32.88 32.83 32.24 32.96 32.27 31.88 32.06 31.09 30.83
33.04 33.23 33.30 33.59 34.26 34.45 34.19 33.92 33.92 33.62 33.18 33.25 33.38 33.44 33.70 33.17 32.97 32.85 32.19 31.69 31.03 30.83
30.95 32.14 32.64 33.13 33.09 33.10 33.10 32.70 32.64 32.81 32.89 32.84 32.77 32.81 32.69 32.51 32.20 32.05 31.85 31.79 31.54 31.53
26.21 27.09 28.08 30.08 31.79 31.93 32.02 32.29 32.51 32.35 32.35 32.33 32.37 33.04 31.96 31.91 31.55 31.14 31.15 31.60 31.84 31.63
23.94 23.95 24.51 25.61 26.19 26.77 27.13 28.80 31.88 32.07 31.88 31.51 33.06 34.55 35.45 32.93 30.66 30.80 30.41 29.61 30.37 31.06
21.67 22.02 22.55 23.58 24.07 23.56 23.91 25.27 25.74 27.01 27.94 27.97 29.13 33.35 34.59 35.80 31.38 30.25 29.94 29.85 30.18 29.93
19.70 19.94 20.86 21.48 21.58 21.98 22.41 22.36 23.12 23.87 24.85 25.08 26.61 30.55 31.78 32.34 28.99 27.28 27.13 27.37 27.63 27.66
18.30 18.04 18.52 18.55 19.03 19.55 19.52 19.92 20.65 22.23 22.09 21.56 22.40 26.89 28.50 28.59 25.11 24.23 23.35 24.26 24.43 24.33
17.71 17.08 16.68 17.37 17.48 17.95 17.83 19.13 20.28 20.42 20.41 21.17 20.53 23.67 26.01 26.42 24.02 21.77 22.51 22.51 22.92 26.71
17.00 16.54 16.70 16.92 16.88 16.63 16.65 17.68 16.67 17.68 17.83 17.98 18.87 18.81 24.07 25.56 23.59 22.40 21.67 21.43 21.54 22.97
MSLP
1015.07 1015.60 1016.00 1016.28 1016.69 1017.04 1017.35 1017.57 1017.93 1018.27 1018.64 1018.97 1019.23 1019.45 1019.65 1019.91 1020.11 1020.27 1020.47 1020.67 1020.88 1021.14
1014.90 1015.35 1015.74 1016.12 1016.45 1016.85 1017.19 1017.52 1017.84 1018.09 1018.58 1018.82 1019.18 1019.53 1019.75 1019.99 1020.15 1020.37 1020.63 1020.85 1021.05 1021.29
1014.82 1015.09 1015.47 1015.86 1016.30 1016.66 1016.97 1017.24 1017.55 1017.96 1018.32 1018.71 1019.03 1019.34 1019.79 1020.14 1020.40 1020.61 1020.87 1021.01 1021.27 1021.47
1015.00 1015.06 1015.53 1015.88 1016.20 1016.53 1016.92 1017.20 1017.54 1017.96 1018.40 1018.72 1019.09 1019.39 1019.72 1020.11 1020.43 1020.76 1021.25 1021.21 1021.43 1021.69
1016.33 1016.17 1016.22 1016.28 1016.51 1016.70 1017.05 1017.39 1017.66 1018.08 1018.47 1018.82 1019.21 1019.55 1019.84 1020.20 1020.60 1020.86 1021.44 1021.63 1021.62 1021.96
1017.79 1017.88 1017.90 1017.72 1017.64 1017.52 1017.72 1017.91 1018.23 1018.52 1018.93 1019.26 1019.61 1019.92 1020.18 1020.40 1020.96 1020.98 1021.38 1022.03 1022.15 1022.13
1019.24 1019.10 1019.22 1019.01 1018.93 1018.80 1018.73 1018.89 1019.17 1019.42 1019.64 1019.81 1020.01 1020.23 1020.45 1020.66 1020.92 1021.31 1021.43 1021.73 1022.00 1022.20
1020.92 1020.53 1020.13 1019.88 1019.69 1019.61 1019.61 1019.58 1019.74 1019.88 1019.87 1019.88 1020.01 1020.17 1020.40 1020.62 1020.78 1021.15 1021.45 1021.68 1021.96 1022.26
1022.11 1021.88 1021.52 1021.15 1020.97 1020.59 1020.59 1020.35 1019.94 1019.85 1020.13 1020.16 1020.11 1020.31 1020.33 1020.46 1020.73 1021.04 1021.32 1021.69 1021.98 1022.13
1022.92 1022.72 1022.62 1022.31 1021.98 1021.71 1021.56 1021.41 1021.36 1020.91 1020.43 1020.52 1020.42 1020.21 1020.16 1020.27 1020.61 1020.82 1021.03 1021.23 1021.57 1022.02
1023.43 1023.33 1023.34 1022.96 1022.80 1022.35 1022.39 1022.08 1022.01 1021.72 1021.51 1021.20 1021.06 1020.48 1020.43 1020.42 1020.80 1020.97 1021.13 1021.17 1021.36 1021.43
1023.88 1024.03 1023.92 1023.33 1023.29 1023.03 1022.92 1022.64 1022.43 1022.14 1021.92 1021.83 1021.63 1021.21 1020.88 1020.92 1021.12 1021.15 1021.20 1021.15 1021.13 1021.17
1023.91 1023.88 1023.49 1023.05 1023.08 1022.94 1022.64 1022.39 1022.29 1021.99 1021.78 1021.57 1021.38 1021.12 1020.80 1021.02 1020.92 1021.16 1021.15 1020.85 1020.95 1020.73
1023.94 1023.82 1023.09 1022.67 1022.72 1022.69 1022.49 1022.08 1022.06 1022.00 1021.79 1021.44 1021.19 1021.07 1020.88 1020.80 1020.61 1020.76 1020.78 1020.58 1020.43 1020.35
Wind_Speed
7 4 5 8 6 6 6 5 6 6 6 6 6 5 5 4 4 5 5 7 5 4
5 6 6 6 6 5 5 5 7 7 6 6 6 6 6 4 5 5 4 5 5 4
6 5 5 6 6 7 7 8 8 7 8 7 6 6 6 4 4 5 3 4 6 4
3 4 4 5 5 6 6 7 8 8 7 6 6 6 6 5 5 6 4 4 5 5
9 8 6 5 3 4 6 5 6 6 6 6 5 5 7 6 5 6 5 4 5 5
11 10 9 9 8 8 7 7 7 7 7 7 6 6 5 5 4 5 5 4 4 4
10 7 6 6 7 7 7 6 5 5 5 5 5 5 5 5 5 5 5 4 3 4
11 11 10 9 5 3 1 1 2 3 4 4 5 4 5 5 5 5 4 4 4 3
11 11 10 10 9 9 8 7 2 2 3 3 3 7 11 7 5 4 4 3 3 4
8 9 9 9 8 9 8 8 8 6 5 4 3 3 4 12 5 5 5 5 4 5
8 8 8 8 7 7 6 6 6 6 6 5 5 8 7 6 3 2 1 2 4 4
6 7 7 7 6 6 6 5 5 6 4 3 4 10 9 7 1 2 3 3 3 4
6 6 6 5 5 4 4 6 5 7 4 6 4 7 10 10 2 4 5 4 5 10
6 7 7 5 4 4 5 6 4 6 4 5 5 6 12 13 6 6 6 6 4 4
Wind_Direction
190 177 188 179 173 180 182 169 166 162 160 158 155 151 147 137 136 131 127 131 127 125
185 175 177 175 168 173 164 172 171 164 160 161 156 158 152 149 142 131 132 128 127 119
168 164 166 160 172 172 175 173 168 164 162 161 160 160 151 146 141 128 141 137 130 126
38 119 152 176 171 164 155 160 163 160 159 157 157 148 136 133 137 136 140 132 143 155
28 26 38 49 76 136 146 146 152 148 146 133 123 122 130 131 128 131 134 146 146 158
33 31 30 34 40 54 66 72 71 82 99 104 97 92 89 107 123 131 151 174 185 154
23 27 21 23 33 40 44 65 85 102 119 130 138 153 164 166 164 173 173 173 182 176
17 19 21 19 21 31 56 173 187 185 186 180 179 178 177 181 178 179 179 182 189 205
18 17 17 18 18 26 23 20 65 176 191 175 167 199 195 173 169 172 182 197 209 219
13 15 12 9 16 19 16 11 5 12 34 46 30 0 239 198 191 186 189 188 189 210
10 7 358 360 2 7 360 358 348 348 349 350 336 326 322 320 88 125 210 226 217 217
360 344 336 345 343 342 332 329 318 307 293 296 295 293 286 279 263 267 267 266 255 237
304 301 305 302 289 281 275 280 278 282 283 285 277 291 272 268 230 259 263 254 248 261
307 298 292 280 264 282 290 288 290 286 282 279 274 271 272 263 257 248 256 254 251 245